Location: Mahannah Oil Field
(37.4664°N, 96.6003°W)
Time: 03:39:54
(UTC+00:00)

A-11 Canister half - Pass Details

Date: 28 January 2021
Orbit: 1525 x 1684 km, 47.3° (Epoch: 02 March)

Event Time Altitude Azimuth Distance (km) Brightness Sun altitude
Rises 03:33:21 0° 299° (WNW) 4,780 12.3 -45.1°
Reaches altitude 10° 03:36:40 10° 292° (WNW) 3,815 11.6 -45.8°
Enters shadow 03:44:26 38° 240° (WSW) 2,320 10.0 -47.3°
Maximum altitude 03:45:22 39° 228° (SW) 2,300 - -47.4°
Drops below altitude 10° 03:54:18 10° 164° (SSE) 3,908 - -49.2°
Sets 03:57:46 0° 157° (SSE) 4,907 - -49.8°
